FW4331 Weather Reports


Display with metric or nautical units.
time (UTC)temp
F
wind
direction
speed
MPH
gust
MPH
rain 1hr
in
rain 24hr
in
rain mn
in
humidity
%
barometer
mb
20260509014545 59 207 0.0 1.0 0.00 0.00 0.00 39 1010.6
20260509013043 60 148 0.0 1.0 0.00 0.00 0.00 38 1010.6
20260509011541 60 236 0.0 0.0 0.00 0.00 0.00 37 1010.6
20260509010035 62 236 0.0 0.0 0.00 0.00 0.00 35 1010.6
20260509004532 63 236 0.0 1.0 0.00 0.00 0.00 33 1010.5
20260509003034 64 240 0.0 1.0 0.00 0.00 0.00 31 1010.3
20260509001531 66 245 0.0 5.0 0.00 0.00 0.00 29 1010.2
20260509000028 67 265 2.0 7.0 0.00 0.00 0.00 28 1010.1
20260508234526 67 229 1.0 9.0 0.00 0.00 0.00 28 1010.1
20260508233029 67 260 1.0 7.0 0.00 0.00 0.00 27 1010.0
20260508231521 68 172 3.0 8.0 0.00 0.00 0.00 27 1009.9
20260508230020 68 229 2.0 8.0 0.00 0.00 0.00 27 1009.9
20260508224518 69 159 2.0 7.0 0.00 0.00 0.00 26 1009.8
20260508223023 70 229 1.0 7.0 0.00 0.00 0.00 24 1009.5
20260508221514 71 205 1.0 6.0 0.00 0.00 0.00 22 1009.7
20260508220011 73 230 2.0 7.0 0.00 0.00 0.00 18 1009.7
20260508214506 73 213 1.0 8.0 0.00 0.00 0.00 18 1009.8
20260508213005 71 227 1.0 6.0 0.00 0.00 0.00 20 1009.8
20260508211502 70 282 1.0 5.0 0.00 0.00 0.00 21 1009.9
20260508210101 70 169 0.0 8.0 0.00 0.00 0.00 19 1009.8
20260508204556 71 219 4.0 10.0 0.00 0.00 0.00 18 1009.9
20260508203057 71 209 3.0 12.0 0.00 0.00 0.00 18 1010.0
20260508201551 71 251 2.0 8.0 0.00 0.00 0.00 21 1010.1
20260508200059 72 237 4.0 9.0 0.00 0.00 0.00 17 1010.3
20260508194545 72 256 1.0 12.0 0.00 0.00 0.00 18 1010.4
20260508193044 72 292 2.0 6.0 0.00 0.00 0.00 18 1010.8
20260508191548 73 304 2.0 7.0 0.00 0.00 0.00 17 1011.1
20260508190036 71 257 3.0 11.0 0.00 0.00 0.00 18 1011.2
20260508184533 71 278 1.0 8.0 0.00 0.00 0.00 19 1011.5
20260508183031 70 281 5.0 15.0 0.00 0.00 0.00 21 1011.8
20260508181527 70 257 3.0 11.0 0.00 0.00 0.00 20 1011.9
20260508180024 69 221 3.0 13.0 0.00 0.00 0.00 20 1011.9
20260508174528 69 283 6.0 10.0 0.00 0.00 0.00 21 1012.2
20260508173018 69 256 4.0 11.0 0.00 0.00 0.00 24 1012.2
20260508171547 67 295 3.0 12.0 0.00 0.00 0.00 23 1012.5
20260508170017 68 281 5.0 15.0 0.00 0.00 0.00 22 1012.7
20260508164511 68 323 7.0 14.0 0.00 0.00 0.00 22 1012.8
20260508163007 67 248 1.0 10.0 0.00 0.00 0.00 23 1013.1
20260508161505 67 244 5.0 11.0 0.00 0.00 0.00 24 1013.4
20260508160109 67 341 1.0 9.0 0.00 0.00 0.00 26 1013.5
20260508154559 66 210 1.0 8.0 0.00 0.00 0.00 25 1013.6
20260508153054 65 255 4.0 11.0 0.00 0.00 0.00 25 1013.7
20260508151559 64 263 4.0 9.0 0.00 0.00 0.00 26 1013.7
20260508150047 63 250 4.0 11.0 0.00 0.00 0.00 28 1014.0
20260508144549 63 278 4.0 8.0 0.00 0.00 0.00 27 1014.2
20260508143051 62 234 3.0 10.0 0.00 0.00 0.00 27 1014.3
20260508141538 61 212 2.0 7.0 0.00 0.00 0.00 27 1014.2
20260508140038 61 221 1.0 6.0 0.00 0.00 0.00 27 1014.3
20260508134532 60 239 2.0 7.0 0.00 0.00 0.00 31 1014.5
20260508133129 59 289 4.0 10.0 0.00 0.00 0.00 30 1014.5
20260508131522 58 237 3.0 8.0 0.00 0.00 0.00 31 1014.6
20260508130027 58 288 0.0 7.0 0.00 0.00 0.00 35 1014.8
20260508124529 57 264 0.0 5.0 0.00 0.00 0.00 40 1014.9
20260508123018 55 283 0.0 2.0 0.00 0.00 0.00 44 1014.7
20260508121503 53 274 0.0 3.0 0.00 0.00 0.00 50 1014.7
20260508120100 51 254 0.0 1.0 0.00 0.00 0.00 50 1014.5
20260508114624 50 263 0.0 0.0 0.00 0.00 0.00 54 1014.5
20260508113054 49 227 0.0 0.0 0.00 0.00 0.00 53 1014.4
20260508111552 46 232 0.0 1.0 0.00 0.00 0.00 56 1014.1
20260508110047 45 305 0.0 0.0 0.00 0.00 0.00 57 1013.9
20260508104547 44 316 0.0 0.0 0.00 0.00 0.00 58 1013.8
20260508103046 42 316 0.0 0.0 0.00 0.00 0.00 61 1013.5
20260508101545 42 316 0.0 0.0 0.00 0.00 0.00 60 1013.4
20260508100036 42 316 0.0 0.0 0.00 0.00 0.00 59 1013.2
20260508094543 43 316 0.0 0.0 0.00 0.00 0.00 60 1013.0
20260508093031 43 316 0.0 0.0 0.00 0.00 0.00 59 1012.9
20260508091541 43 316 0.0 0.0 0.00 0.00 0.00 58 1013.0
20260508090027 45 316 0.0 0.0 0.00 0.00 0.00 54 1013.0
20260508084517 46 316 0.0 0.0 0.00 0.00 0.00 52 1012.9
20260508083015 46 326 0.0 0.0 0.00 0.00 0.00 50 1012.7
20260508081525 47 18 0.0 0.0 0.00 0.00 0.00 50 1012.7
20260508080006 48 252 0.0 0.0 0.00 0.00 0.00 48 1012.5
20260508074504 50 263 0.0 1.0 0.00 0.00 0.00 45 1012.4
20260508073001 50 294 0.0 3.0 0.00 0.00 0.00 43 1012.4
20260508071623 51 334 0.0 1.0 0.00 0.00 0.00 44 1011.9
20260508070101 51 319 0.0 5.0 0.00 0.00 0.00 43 1011.8
20260508064553 52 336 0.0 4.0 0.00 0.00 0.00 43 1011.7
20260508063049 51 25 0.0 6.0 0.00 0.00 0.00 45 1011.5
20260508061547 50 328 0.0 3.0 0.00 0.00 0.00 48 1011.3
20260508060045 50 335 0.0 3.0 0.00 0.00 0.00 50 1011.4
20260508054548 50 8 0.0 2.0 0.00 0.02 0.00 52 1011.4
20260508053044 50 13 0.0 3.0 0.00 0.02 0.00 52 1011.6
20260508051541 49 322 0.0 3.0 0.00 0.02 0.00 48 1011.4
20260508050038 48 9 0.0 1.0 0.00 0.02 0.00 46 1011.2
20260508044529 48 29 0.0 1.0 0.00 0.05 0.00 50 1010.9
20260508043024 48 316 0.0 0.0 0.00 0.05 0.00 56 1010.7
20260508041520 49 297 0.0 1.0 0.00 0.05 0.00 57 1010.6
20260508040027 50 274 0.0 2.0 0.00 0.06 0.05 58 1010.4
20260508034515 51 264 0.0 5.0 0.00 0.06 0.05 58 1010.3
20260508033010 51 262 0.0 6.0 0.00 0.06 0.05 59 1010.1
20260508031509 51 267 0.0 4.0 0.00 0.06 0.05 59 1010.2
20260508030006 51 269 0.0 2.0 0.00 0.06 0.05 60 1010.1
20260508024507 51 258 0.0 4.0 0.00 0.06 0.05 60 1010.2
20260508023005 51 257 0.0 3.0 0.00 0.06 0.05 60 1010.0
20260508021600 51 254 0.0 3.0 0.00 0.06 0.05 60 1009.9
20260508020111 51 257 0.0 2.0 0.00 0.06 0.05 60 1009.8